KC3ECO Weather Reports


time (UTC)temp
C
wind
direction
speed
KPH
gust
KPH
rain 1hr
cm
rain 24hr
cm
rain mn
cm
humidity
%
barometer
mb
20260507031016 16 139 1.6 6.4 0.00 0.46 0.46 86 1009.8
20260507030016 16 216 3.2 8.0 0.00 0.46 0.46 85 1010.2
20260507025016 16 246 1.6 9.7 0.00 0.46 0.46 86 1010.2
20260507024016 16 247 1.6 4.8 0.00 0.46 0.46 89 1009.8
20260507023017 17 257 1.6 4.8 0.00 0.46 0.46 92 1009.8
20260507022016 17 77 0.0 3.2 0.00 0.46 0.46 92 1009.8
20260507021016 17 311 0.0 3.2 0.00 0.46 0.46 91 1009.8
20260507020017 17 273 1.6 4.8 0.00 0.46 0.46 90 1009.9
20260507015017 17 285 1.6 8.0 0.00 0.46 0.46 91 1009.9
20260507014017 17 281 1.6 12.9 0.00 0.46 0.46 92 1010.0
20260507013017 17 252 0.0 3.2 0.00 0.46 0.46 92 1009.8
20260507012018 18 269 1.6 4.8 0.00 0.46 0.46 91 1010.0
20260507011017 18 311 0.0 3.2 0.00 0.46 0.46 89 1009.8
20260507010017 18 308 0.0 3.2 0.00 0.46 0.46 87 1009.6
20260507005019 18 304 0.0 3.2 0.00 0.46 0.46 87 1009.7
20260507004017 18 306 0.0 1.6 0.00 0.43 0.43 87 1009.3
20260507003018 18 299 0.0 1.6 0.00 0.43 0.43 86 1009.3
20260507002018 18 260 1.6 4.8 0.00 0.43 0.43 86 1009.2
20260507001018 19 291 1.6 3.2 0.00 0.43 0.43 85 1009.2
20260507000018 19 277 1.6 3.2 0.00 0.43 0.43 85 1008.8
20260506235019 19 226 0.0 3.2 0.00 0.43 0.43 84 1008.8
20260506234058 19 276 1.6 4.8 0.00 0.43 0.43 83 1008.7
20260506233019 20 241 1.6 4.8 0.00 0.43 0.43 83 1008.6
20260506232016 20 253 1.6 6.4 0.00 0.43 0.43 82 1008.6
20260506231015 20 319 1.6 3.2 0.00 0.43 0.43 82 1008.8
20260506230016 20 280 1.6 4.8 0.00 0.43 0.43 82 1008.8
20260506225016 20 264 0.0 3.2 0.00 0.43 0.43 82 1008.8
20260506224017 20 291 1.6 3.2 0.00 0.43 0.43 81 1008.6
20260506223057 20 272 3.2 4.8 0.00 0.43 0.43 81 1008.7
20260506222038 20 133 1.6 4.8 0.00 0.43 0.43 81 1008.7
20260506221017 20 116 1.6 6.4 0.00 0.43 0.43 81 1008.7
20260506220019 20 85 1.6 6.4 0.00 0.43 0.43 79 1008.7
20260506215017 21 29 3.2 9.7 0.00 0.43 0.43 77 1008.5
20260506214037 21 253 3.2 8.0 0.00 0.46 0.43 75 1008.5
20260506213019 21 266 3.2 6.4 0.00 0.46 0.43 77 1008.5
20260506212017 21 246 1.6 6.4 0.00 0.46 0.43 77 1008.4
20260506211019 21 284 4.8 11.3 0.00 0.46 0.43 76 1008.4
20260506210018 21 269 4.8 12.9 0.00 0.46 0.43 76 1008.3
20260506205018 20 270 4.8 8.0 0.00 0.46 0.43 78 1008.4
20260506204039 20 289 4.8 9.7 0.00 0.46 0.43 78 1008.3
20260506203018 20 280 4.8 9.7 0.00 0.46 0.43 78 1008.1
20260506202018 20 265 6.4 12.9 0.00 0.46 0.43 77 1008.2
20260506201018 20 271 6.4 16.1 0.00 0.46 0.43 78 1008.2
20260506200018 20 262 4.8 14.5 0.00 0.46 0.43 78 1008.3
20260506195058 20 263 4.8 14.5 0.00 0.46 0.43 78 1008.4
20260506194036 20 279 4.8 11.3 0.00 0.46 0.43 79 1008.5
20260506193016 20 273 6.4 14.5 0.00 0.46 0.43 80 1008.6
20260506192016 19 278 4.8 11.3 0.00 0.46 0.43 81 1008.8
20260506191021 18 264 3.2 6.4 0.00 0.46 0.43 83 1009.1
20260506190019 18 271 4.8 9.7 0.00 0.46 0.43 84 1009.1
20260506185019 18 266 4.8 8.0 0.00 0.46 0.43 85 1009.1
20260506184022 18 260 4.8 6.4 0.00 0.46 0.43 87 1009.1
20260506183020 17 255 3.2 8.0 0.00 0.46 0.43 87 1009.1
20260506182023 17 254 3.2 8.0 0.00 0.46 0.43 88 1009.2
20260506181020 17 265 4.8 9.7 0.00 0.46 0.43 88 1009.3
20260506180020 17 267 4.8 11.3 0.00 0.46 0.43 89 1009.3
20260506175023 17 272 3.2 4.8 0.00 0.46 0.43 90 1009.4
20260506174020 16 275 4.8 12.9 0.00 0.46 0.43 90 1009.4
20260506173040 16 272 4.8 11.3 0.00 0.46 0.43 91 1009.3
20260506172020 16 266 4.8 8.0 0.00 0.46 0.43 91 1009.4
20260506171017 16 241 4.8 17.7 0.00 0.46 0.43 92 1009.4
20260506170020 16 245 4.8 8.0 0.00 0.46 0.43 92 1009.5
20260506165019 16 273 4.8 11.3 0.00 0.46 0.43 92 1009.5
20260506164020 16 256 4.8 11.3 0.00 0.46 0.43 93 1009.4
20260506163020 16 252 4.8 12.9 0.03 0.46 0.43 93 1009.6
20260506162020 16 243 3.2 12.9 0.05 0.46 0.43 93 1009.7
20260506161020 16 261 4.8 11.3 0.08 0.46 0.43 93 1009.7
20260506160021 16 252 4.8 9.7 0.08 0.46 0.43 93 1009.7
20260506155021 16 269 3.2 8.0 0.10 0.46 0.43 93 1009.7
20260506154021 16 280 4.8 11.3 0.10 0.46 0.43 93 1009.8
20260506153021 16 266 3.2 9.7 0.10 0.43 0.43 93 1010.2
20260506152021 16 268 4.8 11.3 0.13 0.41 0.41 92 1010.3
20260506151025 16 248 3.2 6.4 0.15 0.38 0.38 93 1010.4
20260506150021 16 271 4.8 9.7 0.23 0.38 0.36 93 1010.5
20260506145021 16 275 4.8 11.3 0.23 0.36 0.33 93 1010.3
20260506144024 16 242 3.2 8.0 0.23 0.33 0.33 92 1010.1
20260506143025 16 272 4.8 8.0 0.23 0.33 0.30 92 1010.1
20260506142025 16 244 3.2 8.0 0.23 0.30 0.28 92 1010.3
20260506141025 16 260 3.2 4.8 0.20 0.23 0.23 91 1010.6
20260506140025 16 295 1.6 4.8 0.13 0.15 0.15 91 1010.6
20260506135025 16 316 1.6 4.8 0.10 0.13 0.13 90 1010.6
20260506134025 16 246 3.2 4.8 0.08 0.10 0.10 89 1010.5
20260506133026 17 222 1.6 4.8 0.08 0.10 0.08 87 1010.5
20260506132025 17 263 1.6 4.8 0.05 0.05 0.05 86 1010.2
20260506131026 17 243 3.2 8.0 0.03 0.03 0.03 85 1010.3
20260506130046 17 281 1.6 4.8 0.03 0.03 0.03 85 1010.3
20260506125026 17 254 3.2 6.4 0.03 0.03 0.03 85 1010.4
20260506124026 17 248 3.2 8.0 0.00 0.03 0.00 84 1010.5
20260506123026 17 255 3.2 6.4 0.00 0.03 0.00 83 1010.5
20260506122108 17 261 3.2 6.4 0.00 0.03 0.00 82 1010.6
20260506121038 17 238 3.2 9.7 0.00 0.03 0.00 81 1010.7
20260506120017 17 255 4.8 9.7 0.00 0.03 0.00 81 1010.7
20260506115018 17 265 3.2 11.3 0.00 0.03 0.00 80 1010.3
20260506114017 17 261 3.2 9.7 0.00 0.03 0.00 80 1010.4
20260506113027 17 265 3.2 6.4 0.00 0.03 0.00 81 1010.3
20260506112027 17 285 3.2 6.4 0.00 0.03 0.00 81 1010.3
20260506111027 17 275 3.2 6.4 0.00 0.03 0.00 81 1010.1
20260506110038 17 277 4.8 12.9 0.00 0.03 0.00 82 1010.0
20260506105047 17 270 3.2 8.0 0.00 0.03 0.00 82 1009.9
20260506104018 17 251 3.2 9.7 0.00 0.03 0.00 82 1009.9
20260506103018 17 32 3.2 9.7 0.00 0.03 0.00 82 1009.8
20260506102027 17 280 1.6 4.8 0.00 0.03 0.00 82 1009.8
20260506101038 17 291 4.8 9.7 0.00 0.03 0.00 81 1009.8
20260506100027 17 290 3.2 11.3 0.00 0.03 0.00 81 1009.8
20260506095016 17 265 3.2 8.0 0.00 0.03 0.00 81 1009.7
20260506094037 17 255 3.2 8.0 0.00 0.03 0.00 81 1009.7
20260506093016 17 263 3.2 6.4 0.00 0.03 0.00 80 1009.6
20260506092016 17 277 3.2 9.7 0.00 0.03 0.00 80 1009.8
20260506091017 17 267 3.2 9.7 0.00 0.03 0.00 80 1009.9
20260506090017 17 285 3.2 9.7 0.00 0.03 0.00 80 1009.9
20260506085016 17 203 3.2 8.0 0.00 0.03 0.00 80 1010.0
20260506084017 17 259 3.2 12.9 0.00 0.03 0.00 79 1010.0
20260506083037 17 263 3.2 9.7 0.00 0.03 0.00 79 1009.8
20260506082017 18 260 3.2 8.0 0.00 0.03 0.00 78 1009.8
20260506081037 18 265 3.2 11.3 0.00 0.03 0.00 77 1009.8
20260506073018 18 262 3.2 8.0 0.00 0.03 0.00 75 1010.2
20260506072018 18 275 1.6 6.4 0.00 0.03 0.00 75 1010.3
20260506071018 18 240 3.2 9.7 0.00 0.03 0.00 74 1010.3
20260506062016 17 290 1.6 6.4 0.00 0.03 0.00 76 1010.5
20260506061016 17 278 1.6 4.8 0.00 0.03 0.00 76 1010.4
20260506051016 18 281 1.6 8.0 0.00 0.03 0.00 70 1010.7
20260506045016 18 284 1.6 4.8 0.00 0.03 0.00 69 1010.9
20260506044017 18 255 3.2 6.4 0.00 0.03 0.00 68 1010.9
20260506043016 19 265 3.2 6.4 0.00 0.03 0.00 68 1010.9
20260506042017 18 277 3.2 6.4 0.00 0.03 0.00 67 1011.0
20260506041017 18 289 3.2 8.0 0.00 0.03 0.00 68 1010.9
20260506040020 19 264 3.2 6.4 0.00 0.03 0.00 67 1010.9
20260506035038 19 252 3.2 9.7 0.00 0.03 0.03 66 1010.9
20260506034018 19 266 1.6 8.0 0.00 0.03 0.03 65 1010.8
20260506033018 19 259 3.2 8.0 0.00 0.03 0.03 64 1010.8
20260506032019 19 294 1.6 4.8 0.00 0.03 0.03 64 1010.7